Ludington, MI

7:18 PM EST on November 22, 2019 (GMT -0500)
Mason County

Weather History for KLDM - June, 2019

Change the Weather History Date:

Tuesday, June 11, 2019

  Actual Average Record
Temperature  
Mean Temperature 58 °F -  
Max Temperature 72 °F 75 °F 92 °F (1956)
Min Temperature 43 °F 50 °F 28 °F (1972)
Degree Days  
Heating Degree Days 8    
Growing Degree Days 8 (Base 50)    
Moisture  
Dew Point 47 °F    
Average Humidity 65    
Maximum Humidity 98    
Minimum Humidity 38    
Precipitation  
Precipitation 0.00 in - - ()
Sea Level Pressure  
Sea Level Pressure 30.11 in    
Wind  
Wind Speed 2 mph (SW)    
Max Wind Speed 14 mph    
Max Gust Speed 26 mph    
Visibility 9 miles    
Events Rain    
Averages and records for this station are not official NWS values.
T = Trace of Precipitation, MM = Missing Value Source: NWS Daily Summary

Daily Weather History Graph

Daily Weather History Graph

Search for Another Location

Airport or City:

Astronomy

Jun. 11, 2019 Rise Set
Actual Time 6:02 AM EDT 9:28 PM EDT
Civil Twilight 5:26 AM EDT 10:04 PM EDT
Nautical Twilight 4:39 AM EDT 10:51 PM EDT
Astronomical Twilight 3:39 AM EDT 11:51 PM EDT
Moon 3:13 PM EDT (6/11) 3:01 AM EDT (6/11)
Length of Visible Light 16h 37m
Length of Day
15h 25m
Waxing Gibbous, 66% of the Moon is Illuminated
Jun 11
Waxing Gibbous
Jun 17
Full
Jun 25
Last Quarter
Jul 2
New
Jul 9
First Quarter

Hourly Weather History & Observations

Time (EDT) Temp. Windchill Dew Point Humidity Pressure Visibility Wind Dir Wind Speed Gust Speed Precip Events Conditions
12:19 AM 51.3 °F - 46.4 °F 83% 30.10 in 10.0 mi Calm Calm - N/A   Scattered Clouds
12:37 AM 49.5 °F - 46.2 °F 89% 30.10 in 10.0 mi Calm Calm - N/A   Clear
12:55 AM 49.1 °F - 46.9 °F 92% 30.10 in 10.0 mi Calm Calm - N/A   Clear
1:15 AM 48.4 °F - 46.9 °F 95% 30.09 in 10.0 mi Calm Calm - N/A   Clear
1:35 AM 47.7 °F - 46.6 °F 96% 30.10 in 10.0 mi Calm Calm - N/A   Clear
1:58 AM 46.8 °F - 46.0 °F 97% 30.10 in 10.0 mi Calm Calm - N/A   Clear
2:16 AM 45.7 °F - 45.0 °F 97% 30.10 in 1.8 mi Calm Calm - N/A   Mist
2:35 AM 44.1 °F - 43.5 °F 98% 30.10 in 1.5 mi Calm Calm - N/A   Mist
2:36 AM 44.4 °F - 43.7 °F 97% 30.10 in 1.5 mi Calm Calm - N/A   Mist
2:55 AM 43.2 °F - 42.4 °F 97% 30.10 in 3.0 mi Calm Calm - N/A   Clear
3:19 AM 45.7 °F - 44.8 °F 97% 30.10 in 4.0 mi Calm Calm - N/A   Clear
3:36 AM 45.0 °F - 44.4 °F 98% 30.10 in 10.0 mi Calm Calm - N/A   Clear
3:55 AM 44.2 °F - 43.5 °F 97% 30.11 in 1.8 mi Calm Calm - N/A   Mist
4:15 AM 44.1 °F - 43.3 °F 97% 30.11 in 5.0 mi Calm Calm - N/A   Clear
4:39 AM 47.8 °F - 47.1 °F 97% 30.12 in 10.0 mi WSW 3.5 mph - N/A   Clear
4:57 AM 49.5 °F - 47.7 °F 94% 30.12 in 10.0 mi Calm Calm - N/A   Clear
5:15 AM 46.6 °F - 45.1 °F 95% 30.12 in 10.0 mi Calm Calm - N/A   Clear
5:35 AM 46.4 °F 45.2 °F 45.5 °F 97% 30.13 in 10.0 mi WSW 3.5 mph - N/A   Clear
5:55 AM 46.2 °F - 44.8 °F 95% 30.13 in 7.0 mi Calm Calm - N/A   Clear
6:00 AM 43.9 °F - 42.4 °F 95% 30.14 in 2.0 mi Calm Calm - N/A   Clear
6:18 AM 43.7 °F - 43.0 °F 97% 30.14 in 2.0 mi Calm Calm - N/A   Clear
6:36 AM 44.6 °F - 43.9 °F 97% 30.15 in 3.0 mi Calm Calm - N/A   Clear
6:55 AM 50.9 °F - 47.3 °F 87% 30.16 in 10.0 mi WSW 4.6 mph - N/A   Clear
7:15 AM 52.3 °F - 47.3 °F 83% 30.17 in 10.0 mi WSW 3.5 mph - N/A   Clear
7:39 AM 54.9 °F - 47.8 °F 77% 30.17 in 10.0 mi WSW 3.5 mph - N/A   Clear
7:57 AM 56.5 °F - 48.0 °F 73% 30.17 in 10.0 mi WSW 3.5 mph - N/A   Scattered Clouds
8:15 AM 57.2 °F - 48.0 °F 71% 30.17 in 10.0 mi WSW 3.5 mph - N/A   Mostly Cloudy
8:35 AM 58.1 °F - 47.8 °F 69% 30.17 in 10.0 mi WSW 4.6 mph - N/A   Scattered Clouds
8:55 AM 59.2 °F - 47.3 °F 65% 30.17 in 10.0 mi WSW 4.6 mph - N/A   Clear
9:18 AM 60.4 °F - 47.5 °F 62% 30.18 in 10.0 mi SW 4.6 mph - N/A   Clear
9:36 AM 61.0 °F - 46.4 °F 59% 30.17 in 10.0 mi Calm Calm - N/A   Clear
9:55 AM 62.4 °F - 46.0 °F 55% 30.17 in 10.0 mi WSW 3.5 mph - N/A   Clear
10:15 AM 64.0 °F - 45.7 °F 51% 30.18 in 10.0 mi West 4.6 mph - N/A   Clear
10:39 AM 64.6 °F - 46.8 °F 52% 30.17 in 10.0 mi West 4.6 mph - N/A   Clear
10:57 AM 64.9 °F - 46.8 °F 52% 30.17 in 10.0 mi WSW 4.6 mph - N/A   Clear
11:15 AM 65.3 °F - 44.6 °F 47% 30.17 in 10.0 mi WSW 5.8 mph - N/A   Clear
11:16 AM 65.3 °F - 44.6 °F 47% 30.17 in 10.0 mi WSW 5.8 mph - N/A   Clear
11:35 AM 66.0 °F - 44.6 °F 46% 30.16 in 10.0 mi SW 3.5 mph - N/A   Clear
11:36 AM 66.0 °F - 45.0 °F 47% 30.16 in 10.0 mi WSW 3.5 mph - N/A   Clear
11:55 AM 66.7 °F - 44.6 °F 45% 30.16 in 10.0 mi SW 4.6 mph - N/A   Clear
12:18 PM 67.6 °F - 44.4 °F 43% 30.15 in 10.0 mi SSW 5.8 mph - N/A   Clear
12:36 PM 68.4 °F - 43.7 °F 41% 30.15 in 10.0 mi WSW 4.6 mph - N/A   Clear
12:55 PM 69.1 °F - 43.3 °F 39% 30.15 in 10.0 mi West 3.5 mph - N/A   Clear
1:15 PM 69.6 °F - 44.4 °F 40% 30.14 in 10.0 mi SW 3.5 mph - N/A   Clear
1:16 PM 69.8 °F - 44.8 °F 41% 30.14 in 10.0 mi SSW 4.6 mph - N/A   Clear
1:38 PM 70.7 °F - 45.0 °F 40% 30.14 in 10.0 mi WSW 6.9 mph - N/A   Clear
1:57 PM 67.3 °F - 46.0 °F 46% 30.14 in 10.0 mi WSW 6.9 mph - N/A   Clear
2:15 PM 66.4 °F - 47.5 °F 51% 30.14 in 10.0 mi WSW 8.1 mph - N/A   Clear
2:35 PM 66.4 °F - 47.7 °F 51% 30.13 in 10.0 mi West 6.9 mph - N/A   Scattered Clouds
2:36 PM 66.6 °F - 48.2 °F 52% 30.13 in 10.0 mi WSW 6.9 mph - N/A   Scattered Clouds
2:55 PM 65.8 °F - 48.2 °F 53% 30.13 in 10.0 mi West 8.1 mph - N/A   Scattered Clouds
3:00 PM 66.4 °F - 48.6 °F 53% 30.12 in 10.0 mi WSW 6.9 mph - N/A   Clear
3:18 PM 67.8 °F - 48.0 °F 49% 30.12 in 10.0 mi WSW 6.9 mph - N/A   Clear
3:36 PM 68.7 °F - 47.5 °F 47% 30.12 in 10.0 mi WSW 6.9 mph - N/A   Clear
3:55 PM 70.0 °F - 45.7 °F 42% 30.11 in 10.0 mi WSW 6.9 mph - N/A   Clear
4:15 PM 71.4 °F - 45.1 °F 39% 30.10 in 10.0 mi WSW 8.1 mph - N/A   Clear
4:16 PM 71.6 °F - 45.3 °F 39% 30.10 in 10.0 mi SW 8.1 mph - N/A   Clear
4:39 PM 70.0 °F - 44.4 °F 40% 30.10 in 10.0 mi WSW 8.1 mph - N/A   Clear
4:57 PM 70.5 °F - 44.8 °F 40% 30.10 in 10.0 mi SW 8.1 mph - N/A   Clear
5:15 PM 70.2 °F - 45.1 °F 41% 30.09 in 10.0 mi South 6.9 mph - N/A   Clear
5:35 PM 70.9 °F - 45.0 °F 39% 30.08 in 10.0 mi SSW 5.8 mph - N/A   Clear
5:36 PM 70.9 °F - 45.0 °F 39% 30.08 in 10.0 mi SSW 6.9 mph - N/A   Clear
5:55 PM 70.9 °F - 44.8 °F 39% 30.07 in 10.0 mi SSW 4.6 mph - N/A   Clear
6:00 PM 71.1 °F - 45.5 °F 40% 30.07 in 10.0 mi South 4.6 mph - N/A   Clear
6:18 PM 71.6 °F - 46.6 °F 41% 30.07 in 10.0 mi South 4.6 mph - N/A   Clear
6:36 PM 72.1 °F - 47.5 °F 41% 30.06 in 10.0 mi SSW 5.8 mph - N/A   Clear
6:55 PM 71.6 °F - 45.0 °F 38% 30.06 in 10.0 mi South 5.8 mph - N/A   Clear
7:15 PM 70.7 °F - 46.6 °F 42% 30.06 in 10.0 mi SSW 4.6 mph - N/A   Clear
7:16 PM 70.7 °F - 46.4 °F 42% 30.06 in 10.0 mi SSW 4.6 mph - N/A   Clear
7:39 PM 69.8 °F - 46.8 °F 44% 30.05 in 10.0 mi SSW 4.6 mph - N/A   Clear
7:57 PM 64.8 °F - 46.9 °F 52% 30.08 in 10.0 mi SW 13.8 mph 26.5 mph N/A   Clear
8:15 PM 61.5 °F - 47.5 °F 60% 30.08 in 10.0 mi WSW 12.7 mph 20.7 mph N/A   Clear
8:35 PM 59.9 °F - 47.8 °F 64% 30.07 in 10.0 mi West 6.9 mph - N/A   Clear
8:55 PM 60.8 °F - 47.8 °F 62% 30.07 in 10.0 mi West 4.6 mph - N/A   Clear
9:18 PM 60.8 °F - 48.4 °F 64% 30.07 in 10.0 mi WSW 3.5 mph - N/A   Scattered Clouds
9:36 PM 60.3 °F - 48.6 °F 65% 30.06 in 10.0 mi Calm Calm - N/A   Overcast
9:55 PM 60.1 °F - 50.2 °F 70% 30.05 in 10.0 mi Calm Calm - N/A Rain Light Rain
9:56 PM 59.9 °F - 50.4 °F 71% 30.05 in 10.0 mi Calm Calm - N/A Rain Light Rain
10:15 PM 58.3 °F - 51.6 °F 78% 30.05 in 10.0 mi Calm Calm - N/A   Overcast
10:39 PM 58.1 °F - 51.6 °F 79% 30.05 in 10.0 mi Calm Calm - N/A   Mostly Cloudy
10:57 PM 59.9 °F - 50.9 °F 72% 30.05 in 10.0 mi Calm Calm - N/A   Overcast
11:15 PM 59.5 °F - 50.9 °F 73% 30.05 in 10.0 mi SE 3.5 mph - N/A   Overcast
11:16 PM 59.7 °F - 51.1 °F 73% 30.04 in 10.0 mi SE 4.6 mph - N/A   Overcast
11:35 PM 59.0 °F - 51.3 °F 75% 30.04 in 10.0 mi Calm Calm - N/A   Overcast
11:36 PM 59.2 °F - 51.1 °F 74% 30.04 in 10.0 mi Calm Calm - N/A   Overcast
11:55 PM 58.5 °F - 51.8 °F 79% 30.04 in 10.0 mi Calm Calm - N/A   Overcast